Weather History for Dyersburg, TN

Change the Weather History Date:

Sunday, September 29, 2013

  Actual Average Record
Temperature  
Mean Temperature 65 °F -  
Max Temperature 68 °F 76 °F 93 °F (1998)
Min Temperature 62 °F 53 °F 42 °F (2003)
Growing Degree Days 15 (Base 50)    
Moisture  
Dew Point 50 °F    
Average Humidity 58    
Maximum Humidity 64    
Minimum Humidity 49    
Precipitation  
Precipitation 0.23 in - - ()
Sea Level Pressure  
Sea Level Pressure 30.03 in    
Wind  
Wind Speed 5 mph (SSE)    
Max Wind Speed 9 mph    
Max Gust Speed -    
Visibility 8 miles    
Events      
Averages and records for this station are not official NWS values.
T = Trace of Precipitation, MM = Missing Value Source: NWS Daily Summary

Daily Weather History Graph

Daily Weather History Graph

Search for Another Location

Airport:

Trip Planner

Search our weather history database for the weather conditions in past years. The results will help you decide how hot, cold, wet, or windy it might be!

Date:

Astronomy

Sep. 29, 2013 Rise Set
Actual Time 6:51 AM CDT 6:43 PM CDT
Civil Twilight 6:25 AM CDT 7:09 PM CDT
Nautical Twilight 5:55 AM CDT 7:39 PM CDT
Astronomical Twilight 5:26 AM CDT 8:08 PM CDT
Moon 1:41 AM CDT (9/29) 3:32 PM CDT (9/29)
Length of Visible Light 12h 43m
Length of Day
11h 52m
Waning Crescent, 27% of the Moon is Illuminated
Sep 29
Waning Crescent
Oct 4
New
Oct 11
First Quarter
Oct 18
Full
Oct 26
Last Quarter

Hourly Weather History & Observations

Time (CDT) Temp. Dew Point Humidity Pressure Visibility Wind Dir Wind Speed Gust Speed Precip Events Conditions
12:15 AM 68.0 °F 48.2 °F 49% 30.06 in 10.0 mi SSE 5.8 mph - N/A   Mostly Cloudy
12:35 AM 68.0 °F 48.2 °F 49% 30.05 in 10.0 mi South 8.1 mph - N/A   Scattered Clouds
12:55 AM 68.0 °F 48.2 °F 49% 30.05 in 10.0 mi South 8.1 mph - N/A   Scattered Clouds
1:15 AM 68.0 °F 48.2 °F 49% 30.05 in 10.0 mi SE 8.1 mph - N/A   Overcast
1:35 AM 68.0 °F 48.2 °F 49% 30.05 in 10.0 mi South 5.8 mph - N/A   Scattered Clouds
1:55 AM 68.0 °F 48.2 °F 49% 30.05 in 10.0 mi SSE 6.9 mph - N/A   Mostly Cloudy
2:15 AM 68.0 °F 48.2 °F 49% 30.05 in 10.0 mi SSE 4.6 mph - N/A   Overcast
2:35 AM 68.0 °F 48.2 °F 49% 30.04 in 10.0 mi SSE 4.6 mph - N/A   Overcast
2:55 AM 68.0 °F 48.2 °F 49% 30.03 in 10.0 mi SSE 6.9 mph - N/A   Overcast
3:15 AM 68.0 °F 48.2 °F 49% 30.03 in 10.0 mi South 5.8 mph - N/A   Overcast
3:35 AM 66.2 °F 48.2 °F 52% 30.03 in 10.0 mi South 4.6 mph - N/A   Overcast
3:55 AM 66.2 °F 48.2 °F 52% 30.03 in 10.0 mi Calm Calm - N/A   Overcast
4:15 AM 66.2 °F 48.2 °F 52% 30.03 in 10.0 mi South 4.6 mph - N/A   Overcast
4:35 AM 68.0 °F 48.2 °F 49% 30.03 in 10.0 mi Calm Calm - N/A   Overcast
4:55 AM 66.2 °F 48.2 °F 52% 30.03 in 10.0 mi Calm Calm - N/A   Overcast
5:15 AM 66.2 °F 48.2 °F 52% 30.05 in 10.0 mi Calm Calm - N/A   Overcast
5:35 AM 66.2 °F 48.2 °F 52% 30.05 in 10.0 mi Calm Calm - N/A   Overcast
5:55 AM 66.2 °F 48.2 °F 52% 30.06 in 10.0 mi SSW 4.6 mph - N/A   Overcast
6:15 AM 64.4 °F 48.2 °F 56% 30.06 in 10.0 mi SSE 3.5 mph - N/A   Overcast
6:35 AM 64.4 °F 48.2 °F 56% 30.06 in 10.0 mi SSE 5.8 mph - N/A   Overcast
6:55 AM 64.4 °F 48.2 °F 56% 30.06 in 10.0 mi SSE 5.8 mph - N/A   Overcast
7:15 AM 64.4 °F 48.2 °F 56% 30.06 in 10.0 mi SSE 4.6 mph - N/A   Overcast
7:35 AM 64.4 °F 48.2 °F 56% 30.06 in 10.0 mi SSE 5.8 mph - N/A   Overcast
7:55 AM 64.4 °F 48.2 °F 56% 30.06 in 10.0 mi South 4.6 mph - 0.01 in   Overcast
8:15 AM 62.6 °F 48.2 °F 59% 30.06 in 7.0 mi South 3.5 mph - 0.01 in   Overcast
8:35 AM 62.6 °F 48.2 °F 59% 30.06 in 10.0 mi SSE 3.5 mph - 0.01 in   Overcast
8:55 AM 62.6 °F 48.2 °F 59% 30.06 in 9.0 mi South 4.6 mph - 0.02 in   Overcast
9:15 AM 62.6 °F 48.2 °F 59% 30.06 in 7.0 mi South 4.6 mph - N/A   Overcast
9:35 AM 62.6 °F 48.2 °F 59% 30.06 in 7.0 mi South 6.9 mph - 0.02 in   Overcast
9:55 AM 62.6 °F 48.2 °F 59% 30.06 in 9.0 mi South 6.9 mph - 0.03 in   Overcast
10:15 AM 62.6 °F 48.2 °F 59% 30.06 in 9.0 mi SSE 6.9 mph - 0.02 in   Overcast
10:35 AM 62.6 °F 48.2 °F 59% 30.06 in 9.0 mi SSE 6.9 mph - 0.02 in   Overcast
10:55 AM 62.6 °F 48.2 °F 59% 30.06 in 7.0 mi South 6.9 mph - 0.03 in   Overcast
11:15 AM 62.6 °F 48.2 °F 59% 30.06 in 9.0 mi SSE 4.6 mph - N/A   Overcast
11:35 AM 64.4 °F 48.2 °F 56% 30.06 in 4.0 mi SSE 3.5 mph - 0.01 in   Overcast
11:55 AM 64.4 °F 48.2 °F 56% 30.06 in 4.0 mi South 5.8 mph - 0.02 in   Overcast
12:15 PM 64.4 °F 50.0 °F 59% 30.05 in 4.0 mi South 6.9 mph - 0.02 in   Overcast
12:35 PM 64.4 °F 50.0 °F 59% 30.05 in 3.0 mi SSE 3.5 mph - 0.05 in   Overcast
12:55 PM 64.4 °F 50.0 °F 59% 30.04 in 4.0 mi SSE 4.6 mph - 0.07 in   Overcast
1:15 PM 64.4 °F 51.8 °F 64% 30.03 in 5.0 mi South 4.6 mph - 0.01 in   Overcast
1:35 PM 64.4 °F 50.0 °F 59% 30.03 in 4.0 mi SE 3.5 mph - 0.02 in   Overcast
1:55 PM 64.4 °F 50.0 °F 59% 30.02 in 4.0 mi SSE 4.6 mph - 0.03 in   Overcast
2:15 PM 64.4 °F 51.8 °F 64% 30.01 in 3.0 mi SSE 3.5 mph - 0.02 in   Overcast
2:35 PM 64.4 °F 51.8 °F 64% 30.00 in 10.0 mi SSE 6.9 mph - 0.02 in   Overcast
2:55 PM 64.4 °F 51.8 °F 64% 30.00 in 10.0 mi SSE 4.6 mph - 0.02 in   Overcast
3:15 PM 64.4 °F 51.8 °F 64% 30.00 in 10.0 mi SSE 5.8 mph - N/A   Overcast
3:35 PM 66.2 °F 51.8 °F 60% 30.00 in 10.0 mi South 3.5 mph - N/A   Overcast
3:55 PM 66.2 °F 51.8 °F 60% 29.99 in 10.0 mi SSE 5.8 mph - N/A   Overcast
4:15 PM 66.2 °F 51.8 °F 60% 30.00 in 10.0 mi SSE 5.8 mph - N/A   Overcast
4:35 PM 66.2 °F 51.8 °F 60% 30.00 in 10.0 mi SSE 3.5 mph - N/A   Overcast
4:55 PM 66.2 °F 51.8 °F 60% 30.00 in 10.0 mi SSE 4.6 mph - N/A   Overcast
5:15 PM 66.2 °F 51.8 °F 60% 30.00 in 5.0 mi Calm Calm - N/A   Overcast
5:35 PM 66.2 °F 51.8 °F 60% 30.00 in 2.5 mi SE 4.6 mph - N/A   Overcast
5:55 PM 64.4 °F 51.8 °F 64% 30.00 in 3.0 mi ESE 4.6 mph - N/A   Overcast
6:15 PM 64.4 °F 51.8 °F 64% 30.00 in 6.0 mi SE 9.2 mph - N/A   Overcast
6:35 PM 64.4 °F 51.8 °F 64% 30.00 in 7.0 mi SSE 5.8 mph - N/A   Overcast
6:55 PM 64.4 °F 51.8 °F 64% 30.00 in 6.0 mi SE 5.8 mph - N/A   Overcast
7:15 PM 64.4 °F 51.8 °F 64% 30.00 in 5.0 mi SE 4.6 mph - N/A   Overcast
7:35 PM 64.4 °F 51.8 °F 64% 30.00 in 5.0 mi SE 4.6 mph - N/A   Overcast
7:55 PM 64.4 °F 51.8 °F 64% 30.01 in 8.0 mi SSE 6.9 mph - N/A   Overcast
8:15 PM 64.4 °F 51.8 °F 64% 30.01 in 3.0 mi South 4.6 mph - N/A   Overcast
8:35 PM 64.4 °F 51.8 °F 64% 30.01 in 3.0 mi SSE 4.6 mph - N/A   Overcast
8:55 PM 64.4 °F 51.8 °F 64% 30.00 in 3.0 mi SSE 4.6 mph - N/A   Overcast
9:15 PM 64.4 °F 51.8 °F 64% 30.00 in 3.0 mi SSE 4.6 mph - N/A   Overcast
9:35 PM 64.4 °F 51.8 °F 64% 30.00 in 5.0 mi SSE 3.5 mph - N/A   Overcast
9:55 PM 64.4 °F 51.8 °F 64% 30.00 in 9.0 mi SSE 5.8 mph - N/A   Overcast
10:15 PM 64.4 °F 51.8 °F 64% 30.00 in 10.0 mi SSE 3.5 mph - N/A   Overcast
10:35 PM 64.4 °F 51.8 °F 64% 30.00 in 10.0 mi SE 6.9 mph - N/A   Overcast
10:55 PM 64.4 °F 51.8 °F 64% 30.00 in 10.0 mi SSE 4.6 mph - N/A   Overcast
11:15 PM 64.4 °F 51.8 °F 64% 30.00 in 8.0 mi Calm Calm - N/A   Overcast
11:35 PM 64.4 °F 51.8 °F 64% 29.99 in 3.0 mi Calm Calm - N/A   Overcast
11:55 PM 64.4 °F 51.8 °F 64% 29.99 in 3.0 mi Calm Calm - N/A   Overcast